This demonstration page uses our WeatherBlox Daily Observations layout. Learn more.

Left ArrowRight Arrow

30.21309, -93.2044

Hourly Observations for March 10, 2015

Temp ( °F °C ) Dew Point ( °F °C ) Humidity (%) Winds ( mph kmh ) Pressure ( in mb ) Visibility ( mi km ) Precip ( " mm )
12:15 am 00:15 Cloudy with Light Rain 65 18.5 64 18 97 97 SSW 8 13 29.91 1013 10 16 0.01 0.25
12:35 am 00:35 Cloudy with Light Rain 65 18.2 64 17.8 98 98 SSW 9 15 29.88 1012 10 16 0.01 0.25
12:55 am 00:55 Cloudy with Rain 65 18.2 64 17.9 98 98 SSW 9 15 29.88 1012 10 16 0.01 0.25
1:15 am 01:15 Cloudy 65 18.1 64 17.8 98 98 SSW 8 13 29.88 1012 10 16 0.00 0.00
1:35 am 01:35 Cloudy with Light Rain 64 17.9 64 17.5 98 98 SSW 8 13 29.88 1012 10 16 0.00 0.00
1:55 am 01:55 Cloudy 64 17.7 64 17.5 99 99 SSW 8 13 29.91 1013 7 11 0.00 0.00
2:15 am 02:15 Cloudy with Drizzle 64 17.6 64 17.5 99 99 SSW 9 15 29.91 1013 5 8 0.00 0.00
2:35 am 02:35 Cloudy with Mist and Fog 64 17.5 63 17.4 99 99 SSW 9 15 29.91 1013 5 8 0.01 0.25
2:55 am 02:55 Cloudy with Mist and Fog 64 17.5 63 17.2 98 98 SSW 7 11 29.91 1013 5 8 0.01 0.25
3:15 am 03:15 Cloudy 64 17.5 63 17.2 98 98 SSW 7 11 29.91 1013 7 11 0.00 0.00
3:35 am 03:35 Cloudy with Mist and Fog 63 17.2 63 17 99 99 SW 6 9 29.91 1013 5 8 0.00 0.00
3:55 am 03:55 Cloudy with Mist and Fog 63 17.2 63 17 99 99 SSW 6 9 29.91 1013 5 8 0.00 0.00
4:15 am 04:15 Cloudy with Mist and Fog 63 17.2 63 17 99 99 SW 6 9 29.91 1013 5 8 0.00 0.00
4:35 am 04:35 Cloudy with Mist and Fog 63 17.2 63 17 99 99 SW 7 11 29.91 1013 5 8 0.00 0.00
4:55 am 04:55 Cloudy with Mist and Fog 63 17.2 63 17 99 99 SSW 5 7 29.91 1013 5 8 0.00 0.00
5:15 am 05:15 Cloudy with Mist and Fog 63 17.2 63 17 99 99 SW 3 6 29.88 1012 5 8 0.00 0.00
6:00 am 06:00 Cloudy 63 17 63 17 100 100 SW 5 7 29.91 1013 7 11 0.00 0.00
6:55 am 06:55 Cloudy with Mist and Fog 63 17 63 17 100 100 S 6 9 29.94 1014 2 3 0.00 0.00
7:50 am 07:50 Cloudy with Light Rain 63 17 61 16 94 94 S 6 9 29.94 1014 2 3 0.00 0.00
8:55 am 08:55 Cloudy with Light Rain 63 17 61 16 94 94 S 6 9 29.97 1015 2 3 0.00 0.00
9:55 am 09:55 Cloudy with Light Rain 63 17 61 16 94 94 SW 3 6 29.97 1015 4 6 0.00 0.00
10:50 am 10:50 Cloudy with Light Rain 61 16 61 16 100 100 WNW 5 7 30.00 1016 3 5 0.00 0.00
11:10 am 11:10 Cloudy with Light Rain 61 16 61 16 100 100 WNW 5 7 30.00 1016 1 1 0.00 0.00
11:50 am 11:50 Cloudy with Rain 59 15 59 15 100 100 VRB 6 9 30.03 1017 5 8 0.00 0.00
12:50 pm 12:50 Cloudy with Light Rain 61 16 59 15 94 94 Calm 30.03 1017 6 10 0.00 0.00
1:50 pm 13:50 Cloudy with Light Rain 61 16 59 15 94 94 Calm N/A 6 10 0.00 0.00
2:50 pm 14:50 Cloudy with Light Rain 61 16 57 14 88 88 Calm 30.00 1016 6 10 0.00 0.00
3:50 pm 15:50 Cloudy with Light Rain 61 16 59 15 94 94 Calm 30.00 1016 10 16 0.00 0.00
4:55 pm 16:55 Cloudy with Light Rain 61 16 61 16 100 100 Calm 30.00 1016 10 16 0.00 0.00
5:50 pm 17:50 Cloudy 61 16 61 16 100 100 Calm 30.00 1016 10 16 0.00 0.00
6:55 pm 18:55 Cloudy 61 16 59 15 94 94 NNW 8 13 30.03 1017 10 16 0.00 0.00
8:50 pm 20:50 Cloudy 61 16 57 14 88 88 NNW 7 11 30.06 1018 10 16 0.00 0.00
9:50 pm 21:50 Cloudy 57 14 55 13 94 94 NNW 8 13 30.09 1019 10 16 0.00 0.00
10:15 pm 22:15 Cloudy 57 13.8 55 13 95 95 N 6 9 30.09 1019 10 16 0.00 0.00
10:35 pm 22:35 Cloudy 56 13.6 55 12.9 96 96 N 7 11 30.09 1019 10 16 0.00 0.00
10:55 pm 22:55 Cloudy 56 13.5 55 12.8 96 96 N 7 11 30.09 1019 7 11 0.00 0.00
11:15 pm 23:15 Cloudy 56 13.4 55 12.8 96 96 NNW 7 11 30.09 1019 7 11 0.00 0.00
11:35 pm 23:35 Cloudy with Mist and Fog 56 13.1 55 12.6 97 97 NNW 6 9 30.09 1019 5 8 0.00 0.00
11:55 pm 23:55 Cloudy with Mist and Fog 56 13.1 55 12.6 97 97 NNW 9 15 30.09 1019 5 8 0.00 0.00

Powered by AerisWeather